Simultaneous Nadir Overpasses (SNOs) Predictions

Prediction of SNOs between NPP and TERRA Satellite Orbit:

Table of predicted SNOs for the next 14.0 days since TLE Epoch: 8/31/2019
Index Date (NPP) Time (NPP) Lat,Lon (NPP) SZA (NPP ) Date (TERRA) Time (TERRA) Lat,Lon (TERRA) SZA (TERRA ) Distance(km) Time Diff (sec)
1 08/31/2019 10:39:40 68.39, 18.71 59.62 08/31/2019 10:40:10 68.36, 18.69 59.59 2.90 30
2 08/31/2019 11:30:21 -68.24,-173.79 120.51 08/31/2019 11:29:40 -68.24,-173.82 120.52 1.45 41
3 09/03/2019 02:05:55 -68.76, -33.31 119.05 09/03/2019 02:07:07 -68.63, -32.74 119.18 26.65 72
4 09/03/2019 02:56:34 68.37, 134.50 60.58 09/03/2019 02:56:37 68.36, 134.57 60.57 2.87 3
5 09/03/2019 03:47:15 -68.23, -57.99 119.56 09/03/2019 03:46:07 -68.25, -57.93 119.54 3.45 68
6 09/05/2019 18:22:44 -68.42, 82.91 118.41 09/05/2019 18:23:39 -68.41, 82.87 118.41 1.57 55
7 09/05/2019 19:13:28 68.30,-109.64 61.49 09/05/2019 19:13:06 68.31,-109.61 61.50 1.01 22
8 09/05/2019 20:03:57 -67.51, 58.67 119.30 09/05/2019 20:02:48 -67.53, 57.11 119.27 66.25 69
9 09/08/2019 09:49:16 69.52, 29.85 63.70 09/08/2019 09:50:21 69.41, 32.38 63.58 99.40 65
10 09/08/2019 10:39:39 -68.40,-161.30 117.42 09/08/2019 10:40:07 -68.41,-161.25 117.42 2.47 28
11 09/08/2019 11:30:22 68.24, 6.22 62.43 09/08/2019 11:29:35 68.25, 6.20 62.44 1.50 47
12 09/11/2019 02:05:54 68.60, 146.90 63.78 09/11/2019 02:07:04 68.57, 147.19 63.75 12.30 70
13 09/11/2019 02:56:33 -68.34, -45.44 116.48 09/11/2019 02:56:36 -68.35, -45.44 116.46 2.10 3
14 09/11/2019 03:47:16 68.17, 122.08 63.37 09/11/2019 03:46:04 68.18, 122.00 63.38 3.22 72
15 09/13/2019 18:22:45 68.43, -97.11 64.63 09/13/2019 18:23:33 68.45, -97.08 64.64 2.53 48
16 09/13/2019 19:13:26 -68.27, 70.42 115.53 09/13/2019 19:13:04 -68.29, 70.37 115.51 3.02 22
17 09/13/2019 20:03:53 67.25,-121.02 63.47 09/13/2019 20:02:46 67.33,-123.09 63.55 89.53 67




NCC Satellite Simultaneous Nadir Overpasses (SNOs) Prediction Service
